Theta_e
345 345 351 355 348 340 351 350 346 348 349 347 348 348 348 346 346 348 345 342 346 347 347 347 347 344 343 344 343 343 343 344 334 333 333 333 333 333 332 333 334 334 332 335 336 335 335 334 334
343 347 354 354 337 342 344 346 349 346 348 349 350 349 349 350 347 346 344 341 343 345 345 343 342 342 343 342 342 341 340 341 333 335 332 331 331 333 335 335 333 330 332 335 336 336 335 336 336
349 353 353 350 335 343 347 346 346 346 350 350 349 349 349 348 346 343 340 340 340 340 340 340 341 344 344 342 341 338 336 338 335 333 331 330 332 333 335 335 333 334 335 335 334 335 335 336 337
349 352 349 335 335 338 348 344 343 346 347 351 350 351 350 350 347 341 339 340 340 340 340 340 342 344 341 339 338 336 334 332 331 331 330 331 332 334 335 335 335 335 333 334 335 336 336 337 337
348 346 337 333 335 347 346 344 345 345 351 351 350 351 351 350 346 346 339 340 340 340 341 342 342 340 335 336 337 337 337 337 335 333 333 335 336 336 335 335 333 331 332 334 335 335 336 337 338
340 340 339 342 340 347 346 345 346 352 353 351 350 350 351 349 348 345 341 340 342 342 342 342 342 341 336 341 340 339 339 339 338 338 337 336 335 334 333 332 331 332 334 336 336 335 334 334 335
339 338 343 341 340 348 347 349 353 352 350 351 349 351 352 349 348 346 343 343 342 342 343 343 343 341 340 338 339 339 338 336 338 338 337 337 337 333 333 334 336 336 340 340 336 334 335 332 334
340 336 341 340 343 347 346 349 352 351 352 350 346 350 350 350 349 348 345 344 344 343 343 342 343 341 340 340 341 339 338 336 336 336 337 336 336 336 337 341 342 341 340 337 336 340 337 335 336
343 337 340 342 339 339 346 347 352 351 351 347 349 346 346 349 349 350 346 345 345 344 343 345 342 341 339 337 338 338 338 336 335 335 336 336 337 340 339 342 338 337 343 343 339 343 342 342 341
340 337 340 339 337 338 342 347 349 351 350 350 350 346 348 349 349 347 345 345 343 340 342 348 348 346 343 339 337 337 338 337 336 336 337 338 341 346 345 344 346 344 345 343 342 342 343 343 344
340 341 339 340 340 338 341 344 346 350 349 349 350 349 350 349 350 348 347 344 343 341 340 342 342 340 339 339 339 338 338 337 336 337 339 343 343 345 343 341 344 344 344 343 344 344 343 341 341
334 339 340 340 343 340 341 345 348 347 348 347 348 351 352 352 352 351 350 348 345 345 344 344 344 343 343 342 341 341 339 339 342 338 343 345 342 343 342 344 342 342 342 344 344 343 342 341 340
330 336 339 341 344 343 343 342 345 345 348 349 351 352 353 353 352 351 349 348 347 347 347 346 346 346 345 346 345 345 345 343 346 347 348 347 346 346 346 346 345 345 343 343 341 343 342 342 341
336 339 341 342 342 340 342 345 346 348 348 349 352 353 353 353 352 352 351 350 348 348 348 347 347 345 350 350 346 347 348 347 349 348 348 347 347 346 346 345 345 344 345 343 343 343 342 341 341
340 341 341 341 341 338 343 344 348 347 348 348 352 353 353 352 352 351 350 350 348 347 347 350 349 348 345 344 348 346 347 347 348 348 348 346 345 348 345 344 343 343 344 343 342 343 343 342 340
338 335 344 341 342 343 344 350 347 347 347 347 348 350 352 352 351 351 350 347 350 349 350 349 349 348 347 346 347 349 348 347 346 347 348 347 346 347 346 345 344 344 344 343 341 341 340 337 335
329 343 339 342 340 343 344 347 346 347 346 346 347 347 348 350 351 350 349 348 348 349 347 349 349 347 345 346 346 347 347 347 346 346 345 346 345 344 343 344 344 347 342 341 340 338 336 333 331
339 335 342 344 344 341 345 346 346 347 346 346 346 347 347 347 347 348 349 347 347 348 345 345 346 346 345 347 347 349 349 347 346 346 344 344 344 344 345 344 348 340 335 331 329 330 330 329 333
329 333 342 341 337 345 345 346 345 346 345 345 346 347 347 347 347 347 347 347 348 346 345 345 347 347 346 347 350 350 349 348 347 347 347 347 346 347 346 341 339 334 332 331 330 328 332 334 335
327 331 336 336 340 343 345 347 344 343 344 345 345 345 346 347 347 347 346 347 347 346 345 345 347 346 344 344 346 346 344 341 341 346 343 339 341 341 341 338 333 330 327 330 331 337 333 334 335
326 328 331 337 337 344 346 348 347 345 345 344 345 345 345 346 347 347 346 346 346 346 345 346 347 344 339 341 343 342 339 335 336 340 340 339 344 339 335 329 322 324 330 332 328 327 331 334 334
329 327 331 336 337 344 344 350 343 345 346 345 347 347 347 346 346 347 347 346 346 346 346 346 345 342 342 344 342 333 334 339 338 336 338 343 342 335 327 328 329 330 333 332 326 327 330 332 331
329 326 326 333 336 339 341 342 343 342 344 345 345 345 348 348 347 347 347 349 349 345 346 341 342 343 340 342 336 331 330 337 339 332 336 342 337 331 328 331 333 335 335 329 327 329 329 329 329
328 326 321 324 329 339 342 338 337 345 346 345 343 344 348 349 349 350 349 349 350 342 342 345 343 340 336 330 329 323 328 331 329 332 337 337 333 329 328 333 335 335 332 324 326 328 328 330 330
323 321 322 329 335 338 330 337 336 338 343 343 342 341 346 348 350 350 350 350 350 342 341 344 342 333 332 329 325 322 323 329 323 329 334 334 333 328 320 325 332 332 325 321 326 329 330 329 328
321 320 322 324 327 331 325 340 339 335 338 341 341 341 344 346 348 350 349 349 350 343 339 335 343 336 333 332 326 327 326 323 317 318 327 328 324 321 327 328 330 330 328 323 323 326 331 332 331
323 321 320 321 324 325 324 327 328 334 334 338 338 337 342 345 346 349 349 348 350 347 340 332 336 338 334 328 328 328 335 325 319 319 318 319 324 331 332 325 324 328 327 323 318 322 328 331 333
323 321 324 320 326 329 326 329 329 334 335 336 335 335 340 344 345 347 348 348 348 347 341 338 338 340 336 331 331 328 336 326 322 321 321 322 331 334 326 324 328 324 322 325 325 321 326 328 330
325 322 321 320 321 324 326 327 325 331 334 335 335 337 339 343 344 345 346 347 347 347 345 339 342 345 342 336 337 334 334 325 326 319 319 320 321 320 322 324 326 324 322 322 326 328 328 328 329
321 322 322 324 323 321 323 326 327 329 333 335 335 336 338 341 343 344 345 346 347 347 346 342 342 344 345 344 341 341 339 325 329 324 320 319 319 321 323 323 323 322 325 326 326 325 326 326 327
Wind_Speed
14 11 6 2 3 5 1 3 2 4 4 2 7 9 11 14 3 4 15 18 18 20 21 22 23 23 22 23 23 23 23 24 27 25 21 19 18 18 18 15 12 11 10 9 8 8 8 8 8
12 9 3 2 4 3 3 1 3 3 11 22 14 11 13 5 10 19 21 19 21 23 24 24 24 24 24 22 22 22 23 26 27 21 18 19 19 18 16 13 12 10 8 7 6 5 6 6 7
13 9 1 2 3 4 4 3 6 13 16 6 7 14 5 5 21 24 24 23 23 23 23 23 23 23 22 22 22 23 24 25 22 20 19 17 17 15 13 12 10 8 6 5 4 4 5 6 6
11 3 1 3 1 3 4 6 14 12 5 8 19 10 9 5 19 21 24 24 23 24 23 23 23 22 24 24 24 24 22 22 20 19 16 15 14 13 11 10 8 6 3 3 3 4 4 5 6
10 2 4 4 4 3 5 16 18 7 6 13 9 8 9 13 20 23 25 24 24 24 23 23 22 23 24 24 24 23 21 21 19 18 16 14 14 12 9 8 5 3 2 3 3 4 4 4 4
1 2 5 2 4 4 5 17 19 8 10 14 15 12 5 16 24 25 24 24 23 24 23 22 22 23 24 24 22 20 19 18 17 16 15 13 11 8 6 4 2 2 1 1 3 4 4 3 2
4 4 5 4 6 5 6 18 8 14 14 9 15 6 15 23 24 24 23 23 23 22 23 23 23 23 22 21 19 17 16 14 15 13 12 10 8 6 3 1 1 1 2 3 4 4 4 2 2
4 4 4 1 8 6 8 6 16 16 9 19 22 7 13 29 25 22 20 22 22 21 21 21 21 21 21 19 17 16 15 14 12 11 11 9 7 4 4 1 3 2 3 4 4 3 4 3 2
5 5 3 5 6 5 19 6 14 6 19 10 7 21 30 32 26 23 23 23 21 20 20 20 19 19 19 19 17 15 14 12 10 10 10 8 6 4 3 4 3 6 3 4 3 3 4 4 3
4 5 7 7 7 9 21 20 22 9 18 4 15 27 33 33 31 28 28 25 24 22 19 18 19 19 18 17 17 15 13 11 9 10 9 7 5 4 3 2 7 5 1 3 3 4 6 5 3
7 7 6 10 13 29 21 16 7 24 7 19 37 40 38 36 32 29 27 24 24 22 21 19 17 17 16 15 14 13 11 10 10 11 9 6 5 5 3 4 6 6 6 3 4 4 6 7 6
4 18 9 10 14 20 17 18 10 11 6 30 43 41 40 38 35 31 28 23 24 23 20 19 17 16 15 13 12 12 12 11 11 11 9 7 7 5 4 4 6 7 7 7 6 7 9 10 12
8 5 20 23 18 23 20 11 9 10 18 30 36 38 38 36 33 28 23 20 21 21 19 19 16 17 16 14 12 12 11 13 10 9 11 10 9 7 6 8 9 10 8 9 10 10 10 13 14
4 11 15 18 18 15 15 10 12 15 27 31 36 37 38 36 34 31 30 25 23 19 21 18 16 15 16 17 15 12 13 14 13 12 12 11 11 9 10 11 11 9 9 11 12 13 14 14 15
19 7 9 4 8 6 23 4 6 28 31 29 34 35 38 36 36 32 30 26 24 20 20 21 14 17 16 14 15 13 12 13 15 14 14 13 12 11 12 10 9 10 12 11 13 12 13 13 13
7 5 9 4 6 13 5 4 12 29 33 29 29 30 36 37 35 32 28 25 24 22 21 19 17 16 16 14 14 14 13 15 15 14 15 13 13 14 15 13 10 12 13 13 12 13 13 12 13
5 12 3 5 12 4 2 5 18 30 28 27 27 30 32 34 34 34 30 25 23 23 22 23 21 16 16 15 14 15 17 19 18 18 15 13 13 14 16 13 10 13 12 11 10 10 11 11 12
12 7 9 13 16 7 6 6 18 30 29 28 29 30 33 34 36 33 33 28 24 22 20 22 20 17 15 15 15 17 16 18 19 17 14 15 15 13 11 11 12 10 7 9 11 12 12 12 11
9 6 15 10 7 5 6 10 20 28 27 26 29 29 31 36 38 35 33 30 28 23 21 22 21 18 18 19 18 17 14 12 13 13 12 14 14 11 10 10 7 10 13 11 9 10 10 9 12
7 6 8 2 8 6 4 8 18 23 29 33 32 32 36 38 37 38 36 33 30 25 23 21 20 19 19 18 14 12 10 11 10 11 11 10 7 6 6 8 13 15 12 9 9 9 11 10 10
5 6 6 8 7 6 9 3 9 13 16 24 27 34 32 40 41 40 39 36 31 28 25 24 22 21 19 14 13 14 13 11 11 10 10 8 7 7 9 12 9 5 2 5 10 11 11 10 7
4 9 8 10 15 8 6 5 9 12 15 13 24 29 36 40 41 42 42 39 33 28 25 24 25 23 21 17 17 14 11 11 11 11 12 11 9 7 8 6 2 1 4 9 8 7 7 8 6
10 8 9 9 13 6 5 4 6 11 10 20 25 31 36 40 45 44 45 39 32 28 29 26 27 25 22 21 19 15 13 13 12 12 12 13 10 9 8 7 5 5 7 11 5 4 4 4 3
2 4 7 5 4 5 12 7 5 12 26 26 23 30 36 42 48 45 44 40 33 31 30 28 28 27 24 23 20 17 15 12 13 14 15 14 10 9 9 8 7 8 12 8 5 3 3 3 2
5 7 3 3 2 6 8 4 9 19 25 25 27 34 38 41 46 49 47 45 38 36 35 34 33 31 30 26 22 18 15 14 14 15 15 15 12 13 11 10 10 11 7 6 4 3 3 4 4
7 10 7 7 4 6 6 7 9 16 30 35 30 37 35 41 48 52 50 49 45 40 40 39 37 36 35 31 26 21 16 15 13 15 17 15 13 11 8 10 10 8 8 8 6 6 7 7 7
4 4 9 6 1 4 4 6 8 6 12 22 28 28 35 42 48 51 51 50 49 44 44 43 42 40 39 35 30 26 21 18 16 13 13 13 13 11 11 10 9 10 11 10 9 9 9 11 12
12 7 2 2 6 5 4 4 5 7 8 11 13 25 36 40 44 46 49 52 53 50 45 44 44 44 42 39 35 30 26 22 15 17 16 14 13 14 14 11 10 10 9 10 12 12 12 13 13
3 3 3 5 4 7 4 7 8 7 9 17 20 37 37 40 44 48 51 51 56 55 50 47 48 47 46 43 40 35 31 28 18 17 16 14 13 14 14 12 11 11 10 10 12 14 15 15 14
7 10 9 6 6 1 5 7 5 9 9 18 24 29 37 43 44 46 49 50 54 58 55 53 52 51 49 46 43 39 33 31 24 19 16 14 14 14 13 10 9 9 9 10 11 12 10 12 12
Wind_Direction
168 166 186 245 61 75 196 265 68 105 93 72 89 105 106 40 58 141 140 143 140 137 135 136 139 138 135 135 139 143 142 143 140 137 136 139 141 140 138 140 132 122 117 111 102 90 81 63 50
167 160 215 285 83 103 272 154 106 89 111 109 81 80 50 71 97 135 145 143 137 138 138 137 139 138 137 139 139 140 141 145 149 143 140 138 136 134 131 132 128 122 116 108 105 94 70 50 40
161 178 159 92 92 165 152 208 153 109 137 92 104 71 65 87 127 137 144 147 143 139 139 139 140 139 139 142 142 140 142 146 152 152 146 140 140 142 134 131 129 130 124 113 95 77 47 29 29
176 193 213 74 67 2 146 149 130 130 110 82 109 79 78 133 134 144 145 147 147 143 143 142 146 144 145 143 143 144 147 152 154 156 156 149 145 149 139 135 135 128 104 86 76 47 25 21 23
160 139 49 54 340 39 88 139 139 129 91 105 110 104 102 150 152 146 148 150 149 145 147 148 149 150 147 148 148 147 148 150 155 157 153 153 154 150 143 138 136 124 112 90 44 13 4 4 4
196 176 61 53 8 65 105 148 146 115 109 114 105 102 106 157 154 150 152 152 154 152 151 152 155 155 156 154 154 155 154 153 153 155 154 157 155 149 145 146 144 136 134 22 347 342 336 336 347
213 96 145 137 118 152 177 159 143 137 139 129 134 97 140 157 156 152 154 158 158 156 156 157 158 160 162 165 167 166 164 163 164 165 165 164 165 159 153 176 195 209 302 315 322 329 340 332 347
263 86 94 83 163 181 169 144 150 135 120 136 130 151 163 165 161 160 163 167 165 167 164 163 165 165 167 167 168 164 162 164 169 177 178 177 170 175 189 229 285 271 295 321 315 343 7 2 335
58 51 152 170 175 158 163 139 164 165 141 145 164 168 163 162 161 166 167 170 172 174 172 172 172 174 176 177 172 168 170 173 173 178 184 187 188 201 222 253 316 290 321 330 331 357 357 3 2
98 128 222 182 173 171 179 161 165 132 162 123 137 151 156 162 170 168 168 170 174 174 173 175 178 181 180 183 187 187 189 187 187 188 191 195 203 224 272 282 316 254 272 325 306 325 339 353 323
198 208 168 187 192 173 164 173 152 148 195 172 150 155 161 166 172 171 174 177 178 181 181 182 182 183 184 183 185 189 191 194 199 197 203 229 226 232 301 292 302 314 302 301 311 343 5 13 353
165 233 193 176 154 148 156 152 124 156 228 166 154 158 163 170 177 176 177 180 178 181 182 180 182 187 189 189 194 194 199 198 203 208 216 239 245 262 296 316 308 303 292 308 323 329 333 332 332
198 187 192 160 154 143 148 132 144 198 158 158 160 163 171 178 181 183 176 178 179 185 180 185 185 190 189 195 196 195 197 197 197 217 232 244 252 263 280 301 303 308 301 300 303 311 308 306 309
209 158 134 152 153 146 129 131 137 158 156 154 166 171 178 184 187 189 190 188 190 191 189 184 188 187 193 200 200 207 214 220 225 233 238 246 256 269 290 293 282 296 300 297 299 298 293 300 305
140 94 80 97 159 124 116 70 154 155 160 158 169 177 185 189 190 194 197 197 194 192 197 199 191 192 202 212 220 227 229 235 238 239 242 255 250 270 284 283 279 286 295 292 294 295 297 301 306
93 35 134 219 191 174 93 183 158 165 166 168 173 182 189 193 198 199 202 205 202 198 203 200 206 214 217 221 223 233 241 245 249 251 256 257 260 262 272 283 281 284 293 284 281 289 293 301 309
45 168 192 170 213 140 112 136 175 171 174 177 183 186 194 201 206 206 206 204 206 206 208 203 208 219 220 222 231 237 245 248 246 249 256 259 260 267 275 275 266 290 290 285 284 288 295 303 305
183 180 195 172 201 185 205 167 164 177 175 184 192 197 200 200 205 209 208 206 208 209 215 211 213 216 218 227 231 236 244 242 244 247 243 249 249 258 260 265 283 294 292 292 291 296 306 315 316
141 179 201 208 163 123 191 153 174 180 186 190 194 200 206 209 210 210 210 209 205 212 212 213 215 217 218 219 228 235 240 240 238 239 244 243 249 260 269 279 277 288 297 293 293 304 310 321 324
140 179 201 326 159 96 170 174 179 184 194 193 193 199 204 211 210 211 209 209 210 212 213 212 219 223 219 220 230 242 242 234 226 215 232 247 244 252 262 275 288 284 281 282 293 298 304 313 319
170 175 186 182 157 43 115 5 206 215 214 209 206 209 207 209 211 210 206 209 212 212 214 213 216 216 217 218 223 230 230 227 215 221 235 243 220 247 277 284 288 278 285 296 298 294 298 308 318
200 204 209 152 163 185 174 213 228 212 219 221 216 212 210 211 214 208 205 207 210 214 213 215 211 210 216 222 224 230 238 241 243 242 238 232 226 261 262 285 201 150 326 316 295 279 287 292 304
229 152 196 178 184 119 206 105 252 161 222 229 218 214 212 210 208 207 206 206 209 208 207 209 210 213 216 223 222 224 231 243 252 253 223 218 234 268 263 275 275 274 301 313 290 284 285 290 300
207 98 39 50 125 194 199 164 235 182 214 225 220 216 207 208 209 212 210 207 207 203 204 208 212 215 215 215 217 225 234 244 247 238 225 218 245 259 262 260 263 295 306 296 293 277 285 268 268
98 80 329 338 356 214 194 144 229 210 215 215 207 209 206 206 206 209 209 206 205 203 203 206 209 212 212 214 216 221 232 243 257 245 235 233 249 271 255 261 260 281 272 259 242 239 272 296 297
179 160 163 189 204 226 130 202 239 211 221 217 216 210 202 204 210 210 212 209 207 208 205 206 209 213 215 217 217 220 229 236 240 230 232 237 243 238 251 262 267 273 268 268 268 256 257 266 290
190 156 197 142 351 101 215 276 329 297 213 204 205 198 204 205 210 212 214 215 211 212 211 210 211 214 217 219 220 222 224 227 228 216 212 217 224 237 253 252 257 268 278 267 273 269 264 267 278
197 165 91 353 166 233 249 242 219 224 207 204 190 196 206 206 209 212 216 218 217 219 219 217 217 218 218 220 222 224 225 228 227 221 222 221 226 239 245 245 261 266 267 267 273 279 278 274 279
141 181 77 128 147 174 224 256 214 227 194 186 195 202 204 202 213 215 220 222 223 223 219 221 221 221 223 222 223 223 224 226 228 227 224 228 232 236 239 242 252 264 272 274 275 281 283 278 280
183 209 182 205 246 198 168 259 232 223 201 188 199 198 205 212 217 220 224 225 223 225 222 223 225 224 226 226 223 222 224 225 228 229 223 219 224 227 231 239 255 264 270 276 283 286 283 285 285